Location: Unspecified
(50.7693°N, 0.0000°E)
Time: 06:59:04
(UTC+00:00)

Transit 2A - Pass Details

Date: 01 July 2019
Orbit: 594 x 965 km, 66.7° (Epoch: 17 July)

Event Time Altitude Azimuth Distance (km) Brightness Sun altitude
Rises 22:09:35 0° 207° (SSW) 3,636 9.1 -12.0°
Reaches altitude 10° 22:12:10 10° 206° (SSW) 2,696 8.5 -12.1°
Maximum altitude 22:18:30 73° 123° (ESE) 996 6.4 -12.6°
Drops below altitude 10° 22:24:38 10° 40° (NE) 2,608 9.1 -13.0°
Sets 22:27:05 0° 39° (NE) 3,510 9.8 -13.1°
